Terminal Aerodrome Forecast
Issued by NWS Jacksonville, FL

Home | Current Version | Previous Version | Text Only | Print | Product List | Glossary On
Versions: 1 2 3 4 5 6 7 8 9 10 11 12 13 14 15 16 17 18 19 20 21 22 23 24 25 26 27
000
FTUS42 KJAX 180520
TAFSSI
TAF
KSSI 180520Z 1806/1906 22005KT P6SM SCT250
     FM180930 22003KT 2SM BR OVC003
     FM181100 22002KT 1SM BR OVC002
     FM181430 VRB05KT 5SM BR BKN007
     FM181630 08009KT P6SM BKN009 BKN100
     FM190000 07007KT 5SM BR OVC003=

USA.gov is the U.S. government's official web portal to all federal, state and local government web resources and services.